Regional Weather Roundup
Issued by NWS State College, PA

Home | Current Version | Previous Version | Text Only | Print | Product List | Glossary Off
Versions: 1 2 3 4 5 6 7 8 9 10 11 12 13 14 15 16 17 18 19 20 21 22 23 24 25 26 27 28 29 30 31 32 33 34 35 36 37 38 39 40 41 42 43 44 45 46 47 48 49 50

000
ASUS41 KCTP 301103
RWRCTP

REGIONAL WEATHER ROUNDUP
NATIONAL WEATHER SERVICE STATE COLLEGE PA
700 AM EDT TUE JUN 30 2015

Note: "fair" indicates few or no clouds below 12,000 feet with no
significant weather and/or obstructions to visibility.

* = STATION THAT DOES NOT REPORT PRECIPITATION /E.G. RAIN...SNOW...ETC/
    THUNDER OR FOG.

PAZ002>004-007>009-013>016-020>023-029>032-301200-
WESTERN PENNSYLVANIA

CITY           SKY/WX    TMP DP  RH WIND       PRES   REMARKS
ERIE           LGT RAIN  63  59  87 S3        29.81R
MEADVILLE      CLOUDY    62  59  90 VRB3      29.83S FOG
FRANKLIN*      CLOUDY    61  57  88 S9        29.86R
NEW CASTLE     CLOUDY    64  64 100 CALM      29.85R
BEAVER COUNTY  CLOUDY    63  63 100 SW5       29.85  FOG
BUTLER*        CLOUDY    63  63 100 SW5       29.87R
PITTSBURGH INT CLOUDY    65  63  93 SW7       29.86R
PITTSBURGH     CLOUDY    64  60  87 S8        29.86R
INDIANA*       CLOUDY    64  63  94 SW5       29.91R
LATROBE        CLOUDY    66  66 100 SW16      29.88
WASHINGTON CO* NOT AVBL
$$

PAZ004>006-010>012-017>019-024>028-033>037-041-042-045-046-049>053-301200-
CENTRAL PENNSYLVANIA

CITY           SKY/WX    TMP DP  RH WIND       PRES   REMARKS
BRADFORD       CLOUDY    59  57  93 SE6       29.88S
DUBOIS         CLOUDY    62  58  86 SE6       29.87R
CLEARFIELD     CLOUDY    60  58  92 NE3       29.90R FOG
JOHNSTOWN      CLOUDY    62  59  90 S8        29.91R
ALTOONA        LGT RAIN  62  60  93 CALM      29.91F FOG
STATE COLLEGE  CLOUDY    61  59  94 N3        29.90R
WILLIAMSPORT   LGT RAIN  64  61  90 E5        29.89R
SELINSGROVE    RAIN      65  63  93 CALM      29.91R FOG
FT INDIANTOWN  CLOUDY    66  61  85 NE3       29.92S
CAPITAL CITY   CLOUDY    69  62  78 E6        29.90S
HARRISBURG     CLOUDY    69  64  84 SE6       29.90S
YORK           PTSUNNY   70  65  84 VRB3      29.91R
$$

PAZ038>040-043-044-047-048-054-055-060>062-067>071-301200-
EASTERN PENNSYLVANIA

CITY           SKY/WX    TMP DP  RH WIND       PRES   REMARKS
SCRANTON       CLOUDY    66  59  78 NE6       29.94R
MOUNT POCONO   CLOUDY    62  56  80 SE6       29.99R
ALLENTOWN      CLOUDY    65  60  84 NE6       29.96R
QUAKERTOWN*    PTSUNNY   64  61  88 CALM      29.97R
READING        PTSUNNY   69  59  70 SE6       29.92S
LANCASTER      PTSUNNY   66  63  90 E5        29.92S
COATESVILLE    SUNNY     64  61  88 SE5       29.96R
POTTSTOWN      CLOUDY    66  60  81 CALM      29.97R
BLUE BELL      MOSUNNY   68  63  83 CALM      29.95R
DOYLESTOWN     CLOUDY    64  60  87 CALM      29.96R
WILLOW GROVE   NOT AVBL
NORTH PHILA    CLOUDY    67  60  78 E5        29.97R
PHILADELPHIA   PTSUNNY   71  64  78 S6        29.96R
$$


USA.gov is the U.S. government's official web portal to all federal, state and local government web resources and services.